Weather History for K0J4 - January, 2012

Change the Weather History Date:

Thursday, January 19, 2012

  Actual Average (KCEW) Record (KCEW)
Temperature  
Mean Temperature 50 °F -  
Max Temperature 66 °F 59 °F 79 °F (1952)
Min Temperature 35 °F 37 °F 10 °F (1977)
Degree Days  
Heating Degree Days 14    
Moisture  
Dew Point 34 °F    
Average Humidity 58    
Maximum Humidity 82    
Minimum Humidity 23    
Precipitation  
Precipitation 0.00 in - - ()
Sea Level Pressure  
Sea Level Pressure 30.14 in    
Wind  
Wind Speed 3 mph (SSE)    
Max Wind Speed 10 mph    
Max Gust Speed -    
Averages and records for this station are not official NWS values.
T = Trace of Precipitation, MM = Missing Value Source: NWS Daily Summary

Daily Weather History Graph

Daily Weather History Graph

Search for Another Location

Airport or City:

Trip Planner

Search our weather history database for the weather conditions in past years. The results will help you decide how hot, cold, wet, or windy it might be!

Date:

Astronomy

Jan. 19, 2012 Rise Set
Actual Time 6:43 AM CST 5:08 PM CST
Civil Twilight 6:17 AM CST 5:34 PM CST
Nautical Twilight 5:47 AM CST 6:04 PM CST
Astronomical Twilight 5:18 AM CST 6:33 PM CST
Moon 3:15 AM CST (1/19) 1:44 PM CST (1/19)
Length of Visible Light 11h 17m
Length of Day
10h 25m
Waning Crescent, 15% of the Moon is Illuminated
Jan 19
Waning Crescent
Jan 23
New
Jan 30
First Quarter
Feb 7
Full
Feb 14
Last Quarter

Hourly Weather History & Observations

Time (CST) Temp. Windchill Dew Point Humidity Pressure Visibility Wind Dir Wind Speed Gust Speed Precip Events Conditions
12:58 AM 37.9 °F - 32.0 °F 79% 30.13 in - Calm Calm - N/A   Clear
1:58 AM 36.0 °F 33.3 °F 30.9 °F 82% 30.14 in - North 3.5 mph - N/A   Clear
2:58 AM 35.1 °F 32.2 °F 30.0 °F 82% 30.13 in - NNE 3.5 mph - N/A   Clear
3:58 AM 39.9 °F - 30.9 °F 70% 30.14 in - Calm Calm - N/A   Overcast
4:58 AM 37.9 °F - 30.0 °F 73% 30.14 in - Calm Calm - N/A   Clear
5:58 AM 37.9 °F 35.5 °F 30.0 °F 73% 30.16 in - East 3.5 mph - N/A   Partly Cloudy
6:58 AM 37.0 °F - 30.0 °F 76% 30.20 in - Calm Calm - N/A   Clear
7:58 AM 43.0 °F - 32.0 °F 65% 30.21 in - Calm Calm - N/A   Clear
8:58 AM 46.9 °F - 34.0 °F 61% 30.22 in - East 4.6 mph - N/A   Clear
9:58 AM 53.1 °F - 33.1 °F 47% 30.20 in - East 5.8 mph - N/A   Clear
10:58 AM 57.0 °F - 32.0 °F 39% 30.18 in - SSE 3.5 mph - N/A   Clear
11:58 AM 61.0 °F - 32.0 °F 34% 30.15 in - South 6.9 mph - N/A   Clear
12:58 PM 64.9 °F - 28.9 °F 26% 30.11 in - Variable 6.9 mph - N/A   Clear
1:58 PM 66.9 °F - 28.0 °F 23% 30.10 in - South 9.2 mph - N/A   Clear
2:58 PM 66.0 °F - 27.0 °F 23% 30.09 in - South 10.4 mph - N/A   Clear
3:58 PM 64.9 °F - 30.0 °F 27% 30.09 in - South 8.1 mph - N/A   Clear
4:58 PM 61.0 °F - 30.9 °F 32% 30.10 in - South 8.1 mph - N/A   Clear
5:58 PM 55.0 °F - 35.1 °F 47% 30.12 in - South 3.5 mph - N/A   Clear
6:58 PM 48.9 °F - 37.0 °F 64% 30.12 in - Calm Calm - N/A   Clear
7:58 PM 51.1 °F - 41.0 °F 68% 30.12 in - South 4.6 mph - N/A   Clear
8:58 PM 54.0 °F - 46.0 °F 75% 30.11 in - South 6.9 mph - N/A   Overcast
9:58 PM 55.9 °F - 48.0 °F 75% 30.10 in - South 9.2 mph - N/A   Overcast
10:58 PM 55.9 °F - 48.0 °F 75% 30.09 in - South 8.1 mph - N/A   Scattered Clouds
11:58 PM 55.0 °F - 48.0 °F 77% 30.10 in - SSE 5.8 mph - N/A   Clear